Terug naar catalogus

BREEZE-M DEB

ActiefHEO
NORAD 32033·DEBRIS·🇷🇺 Russia

Gelanceerd Feb 28, 2006 vanaf Baikonur Cosmodrome

Loading…

Volgende Passages (komende 24 uur)

TLE

VersSource: Space-Track

Epoch: Sep 13, 2026, 17:39 UTC

1 32033U 06006L   26256.73603962  .00001006  00000-0  12745-2 0  9998
2 32033  51.6490  81.7859 5070842  87.0802 327.4376  5.30569431374223

Volg BREEZE-M DEB in realtime met AllMySat

Download on the App Store